Boonton, New Jersey, United States (07005)
Lat: 40.90N, Lon: 74.41W
Wx Zone: NJZ008
Local Info
Past Weather Observations for Tuesday, October 21, 2014

NOTE: This archive is for the closest National Weather Service station to Boonton. Information may differ from the station used for current weather conditions.

Click here for Long-term Archive

Time Weather Temperature Dewpoint Humidity Pressure Winds Precip Visibility
23:53
Mostly Cloudy
54°F / 12°C 50°F / 10°C 88% 29.92 in
(1013 mb)
ENE 5.8 mph
(ENE 9 kph)
- 10SM
23:42
Mostly Cloudy
54°F / 12°C 50°F / 10°C 88% 29.92 in
(1013 mb)
Variable 3.5 mph
(Variable 6 kph)
- 9SM
22:53
Mostly Cloudy
54°F / 12°C 50°F / 10°C 88% 29.92 in
(1013 mb)
Calm - 8SM
21:53
Clear
54°F / 12°C 50°F / 10°C 88% 29.92 in
(1013 mb)
NE 5.8 mph
(NE 9 kph)
- 8SM
20:53
Partly Cloudy
54°F / 12°C 50°F / 10°C 88% 29.92 in
(1013 mb)
Calm 0.00 in
(0.00 mm)
10SM
19:53
Overcast
Light Rain
55°F / 13°C 52°F / 11°C 88% 29.92 in
(1013 mb)
NE 3.5 mph
(NE 6 kph)
0.08 in
(2.03 mm)
10SM
18:53
Overcast
Rain
54°F / 12°C 52°F / 11°C 94% 29.92 in
(1013 mb)
ENE 4.6 mph
(ENE 7 kph)
0.10 in
(2.54 mm)
3SM
18:12
Overcast
Light Rain
57°F / 14°C 52°F / 11°C 82% 29.89 in
(1012 mb)
NNW 5.8 mph
(NNW 9 kph)
0.00 in
(0.00 mm)
9SM
16:53
Overcast
55°F / 13°C 52°F / 11°C 88% 29.83 in
(1010 mb)
NE 4.6 mph
(NE 7 kph)
- 10SM
15:53
Overcast
57°F / 14°C 54°F / 12°C 88% 29.83 in
(1010 mb)
NE 4.6 mph
(NE 7 kph)
0.01 in
(0.25 mm)
10SM
15:02
Overcast
Light Rain
57°F / 14°C 54°F / 12°C 88% 29.83 in
(1010 mb)
ENE 5.8 mph
(ENE 9 kph)
0.00 in
(0.00 mm)
8SM
14:53
Overcast
Heavy Rain
57°F / 14°C 54°F / 12°C 88% 29.83 in
(1010 mb)
NE 5.8 mph
(NE 9 kph)
0.23 in
(5.84 mm)
2 1/2SM
13:53
Overcast
Light Rain
63°F / 17°C 50°F / 10°C 64% 29.83 in
(1010 mb)
S 6.9 mph
(S 11 kph)
0.00 in
(0.00 mm)
10SM
12:53
Overcast
64°F / 18°C 48°F / 9°C 56% 29.83 in
(1010 mb)
Variable 3.5 mph
(Variable 6 kph)
- 10SM
11:53
Overcast
63°F / 17°C 48°F / 9°C 59% 29.86 in
(1011 mb)
E 5.8 mph
(E 9 kph)
- 10SM
10:53
Overcast
61°F / 16°C 46°F / 8°C 59% 29.89 in
(1012 mb)
ESE 5.8 mph
(ESE 9 kph)
- 10SM
09:53
Overcast
57°F / 14°C 48°F / 9°C 72% 29.92 in
(1013 mb)
Variable 3.5 mph
(Variable 6 kph)
0.00 in
(0.00 mm)
10SM
08:53
Overcast
52°F / 11°C 45°F / 7°C 77% 29.92 in
(1013 mb)
NNE 4.6 mph
(NNE 7 kph)
0.00 in
(0.00 mm)
10SM
07:53
Overcast
Light Rain
50°F / 10°C 45°F / 7°C 82% 29.92 in
(1013 mb)
ENE 3.5 mph
(ENE 6 kph)
0.00 in
(0.00 mm)
8SM
06:53
Overcast
50°F / 10°C 43°F / 6°C 76% 29.89 in
(1012 mb)
ENE 6.9 mph
(ENE 11 kph)
- 10SM
05:53
Overcast
48°F / 9°C 43°F / 6°C 82% 29.89 in
(1012 mb)
E 4.6 mph
(E 7 kph)
- 10SM
04:53
Partly Cloudy
46°F / 8°C 43°F / 6°C 87% 29.92 in
(1013 mb)
Calm - 10SM
03:53
Overcast
46°F / 8°C 43°F / 6°C 87% 29.92 in
(1013 mb)
Calm - 10SM
02:53
Mostly Cloudy
46°F / 8°C 43°F / 6°C 87% 29.92 in
(1013 mb)
Calm - 10SM
01:53
Mostly Cloudy
46°F / 8°C 43°F / 6°C 87% 29.95 in
(1014 mb)
Calm - 10SM
00:53
Mostly Cloudy
48°F / 9°C 41°F / 5°C 76% 29.95 in
(1014 mb)
Calm - 10SM
Time Weather Temperature Dewpoint Humidity Pressure Winds Precip Visibility


Weather for websites

WeatherForYou.com, LLC is not responsible for any damages or problems caused by this service. Current weather conditions are obtained from the closest station including government and personal stations which may have varying degrees of accuracy. Weather forecasts are derived from the NOAA NDFD. Like all things, this site belongs to Jesus Christ... He just trusts me to maintain it. If you have any questions or comments email webmaster@weatherforyou.com

Copyright © 2014, WeatherForYou.com LLC. All rights reserved.